• In Romania
  • List of Countries
  • For 7 days
  • Water Temperature
  • Satellite Maps
  • Weather Map
  • Weather Widgets
  • user-avatar
    Login

    Hourly Weather Canberra

    Today, 28 May, Sunday

    Time Temperature Precipitation Wind Pressure Humidity
    00:00 +7°C° 0 mm 1 mps 707 mmHg 94%
    01:00 +6°C° 0 mm 2 mps 707 mmHg 94%
    02:00 +6°C° 0 mm 2 mps 706 mmHg 94%
    03:00 +5°C° 0 mm 2 mps 706 mmHg 94%
    04:00 +5°C° 0 mm 2 mps 705 mmHg 95%
    05:00 +5°C° 0 mm 2 mps 705 mmHg 95%
    06:00 +6°C° 0 mm 2 mps 705 mmHg 95%
    07:00 +6°C° 0 mm 2 mps 705 mmHg 95%
    08:00 +8°C° 0 mm 3 mps 705 mmHg 87%
    09:00 +10°C° 0 mm 4 mps 705 mmHg 79%
    10:00 +12°C° 0 mm 5 mps 705 mmHg 69%
    11:00 +12°C° 0.1 mm 5 mps 704 mmHg 69%
    12:00 +11°C° 0.1 mm 6 mps 704 mmHg 69%
    13:00 +11°C° 0.1 mm 6 mps 704 mmHg 70%
    14:00 +11°C° 0.1 mm 6 mps 704 mmHg 69%
    15:00 +10°C° 0.1 mm 5 mps 704 mmHg 69%
    16:00 +9°C° 0 mm 5 mps 703 mmHg 69%
    17:00 +8°C° 0 mm 4 mps 704 mmHg 73%
    18:00 +7°C° 0 mm 4 mps 704 mmHg 76%
    19:00 +6°C° 0 mm 4 mps 705 mmHg 80%
    20:00 +6°C° 0 mm 4 mps 705 mmHg 80%
    21:00 +5°C° 0 mm 4 mps 706 mmHg 81%
    22:00 +5°C° 0 mm 4 mps 706 mmHg 82%
    23:00 +5°C° 0 mm 4 mps 706 mmHg 81%

    Tomorrow, 29 May, Monday

    Time Temperature Precipitation Wind Pressure Humidity
    00:00 +4°C° 0 mm 4 mps 706 mmHg 81%
    01:00 +4°C° 0 mm 4 mps 706 mmHg 81%
    02:00 +4°C° 0 mm 4 mps 707 mmHg 81%
    03:00 +3°C° 0 mm 4 mps 707 mmHg 81%
    04:00 +3°C° 0 mm 4 mps 707 mmHg 81%
    05:00 +3°C° 0 mm 4 mps 708 mmHg 81%
    06:00 +2°C° 0 mm 3 mps 708 mmHg 81%
    07:00 +2°C° 0 mm 3 mps 709 mmHg 81%
    08:00 +3°C° 0 mm 3 mps 709 mmHg 74%
    09:00 +5°C° 0 mm 3 mps 710 mmHg 67%
    10:00 +7°C° 0 mm 3 mps 711 mmHg 60%
    11:00 +8°C° 0 mm 3 mps 711 mmHg 56%
    12:00 +9°C° 0 mm 3 mps 711 mmHg 52%
    13:00 +10°C° 0 mm 3 mps 711 mmHg 48%
    14:00 +10°C° 0 mm 3 mps 711 mmHg 50%
    15:00 +9°C° 0 mm 3 mps 711 mmHg 53%
    16:00 +9°C° 0 mm 3 mps 711 mmHg 55%
    17:00 +7°C° 0 mm 2 mps 711 mmHg 65%
    18:00 +5°C° 0 mm 2 mps 712 mmHg 75%
    19:00 +3°C° 0 mm 2 mps 712 mmHg 85%
    20:00 +2°C° 0 mm 2 mps 712 mmHg 87%
    21:00 +2°C° 0 mm 1 mps 712 mmHg 89%
    22:00 +2°C° 0 mm 1 mps 713 mmHg 91%
    23:00 +2°C° 0 mm 1 mps 713 mmHg 91%

    Day after tomorrow, 30 May, Tuesday

    Time Temperature Precipitation Wind Pressure Humidity
    00:00 +2°C° 0 mm 1 mps 713 mmHg 90%
    01:00 +2°C° 0 mm 1 mps 713 mmHg 90%
    02:00 +2°C° 0 mm 1 mps 712 mmHg 91%
    03:00 +1°C° 0 mm 2 mps 712 mmHg 91%
    04:00 +1°C° 0 mm 2 mps 712 mmHg 92%
    05:00 +1°C° 0 mm 2 mps 712 mmHg 92%
    06:00 +1°C° 0 mm 2 mps 712 mmHg 93%
    07:00 +1°C° 0 mm 2 mps 712 mmHg 94%
    08:00 +4°C° 0 mm 2 mps 713 mmHg 85%
    09:00 +6°C° 0 mm 2 mps 713 mmHg 75%
    10:00 +8°C° 0 mm 2 mps 713 mmHg 66%
    11:00 +10°C° 0 mm 3 mps 713 mmHg 62%
    12:00 +11°C° 0 mm 3 mps 713 mmHg 59%
    13:00 +12°C° 0 mm 4 mps 712 mmHg 55%
    14:00 +11°C° 0 mm 3 mps 712 mmHg 60%
    15:00 +11°C° 0 mm 3 mps 712 mmHg 64%
    16:00 +10°C° 0 mm 3 mps 712 mmHg 68%
    17:00 +8°C° 0 mm 2 mps 712 mmHg 75%
    18:00 +7°C° 0 mm 2 mps 712 mmHg 82%
    19:00 +7°C° 0 mm 1 mps 713 mmHg 90%
    20:00 +6°C° 0 mm 1 mps 713 mmHg 92%
    21:00 +6°C° 0 mm 1 mps 713 mmHg 94%
    22:00 +5°C° 0 mm 1 mps 713 mmHg 96%
    23:00 +5°C° 0 mm 1 mps 713 mmHg 96%

    31 May, Wednesday

    Time Temperature Precipitation Wind Pressure Humidity
    00:00 +4°C° 0 mm 1 mps 713 mmHg 96%
    01:00 +4°C° 0 mm 1 mps 713 mmHg 96%
    02:00 +4°C° 0 mm 1 mps 714 mmHg 93%
    03:00 +3°C° 0 mm 1 mps 714 mmHg 90%
    04:00 +3°C° 0 mm 1 mps 714 mmHg 87%
    05:00 +2°C° 0 mm 2 mps 714 mmHg 85%
    06:00 +1°C° 0 mm 2 mps 714 mmHg 84%
    07:00 +1°C° 0 mm 2 mps 715 mmHg 83%
    08:00 +3°C° 0 mm 2 mps 716 mmHg 73%
    09:00 +5°C° 0 mm 2 mps 716 mmHg 62%
    10:00 +7°C° 0 mm 3 mps 717 mmHg 52%
    11:00 +8°C° 0 mm 3 mps 716 mmHg 48%
    12:00 +9°C° 0 mm 3 mps 716 mmHg 44%
    13:00 +10°C° 0 mm 3 mps 716 mmHg 39%
    14:00 +10°C° 0 mm 2 mps 716 mmHg 42%
    15:00 +9°C° 0 mm 2 mps 716 mmHg 45%
    16:00 +9°C° 0 mm 2 mps 716 mmHg 49%
    17:00 +7°C° 0 mm 2 mps 717 mmHg 57%
    18:00 +5°C° 0 mm 2 mps 717 mmHg 65%
    19:00 +3°C° 0 mm 2 mps 718 mmHg 74%
    20:00 +2°C° 0 mm 2 mps 718 mmHg 77%
    21:00 +1°C° 0 mm 2 mps 718 mmHg 80%
    22:00 +1°C° 0 mm 2 mps 719 mmHg 83%
    23:00 +1°C° 0 mm 2 mps 718 mmHg 85%

    1 June, Thursday

    Time Temperature Precipitation Wind Pressure Humidity
    00:00 -1°C° 0 mm 2 mps 718 mmHg 87%
    01:00 +1°C° 0 mm 1 mps 718 mmHg 88%
    02:00 +1°C° 0 mm 1 mps 718 mmHg 88%
    03:00 +1°C° 0 mm 1 mps 718 mmHg 88%
    04:00 +1°C° 0 mm 1 mps 718 mmHg 88%
    05:00 +1°C° 0 mm 1 mps 719 mmHg 88%
    06:00 +1°C° 0 mm 1 mps 719 mmHg 87%
    07:00 +1°C° 0 mm 1 mps 719 mmHg 87%
    08:00 +4°C° 0 mm 1 mps 720 mmHg 77%
    09:00 +7°C° 0 mm 1 mps 720 mmHg 66%
    10:00 +10°C° 0 mm 1 mps 721 mmHg 55%
    11:00 +11°C° 0 mm 1 mps 720 mmHg 51%
    12:00 +12°C° 0 mm 1 mps 720 mmHg 47%
    13:00 +13°C° 0 mm 1 mps 720 mmHg 42%
    14:00 +13°C° 0 mm 1 mps 720 mmHg 47%
    15:00 +12°C° 0 mm 1 mps 719 mmHg 52%
    16:00 +11°C° 0 mm 1 mps 719 mmHg 57%
    17:00 +8°C° 0 mm 1 mps 719 mmHg 66%
    18:00 +6°C° 0 mm 1 mps 720 mmHg 75%
    19:00 +3°C° 0 mm 1 mps 720 mmHg 85%
    20:00 +3°C° 0 mm 1 mps 720 mmHg 86%
    21:00 +2°C° 0 mm 1 mps 720 mmHg 88%
    22:00 +2°C° 0 mm 1 mps 720 mmHg 89%
    23:00 +2°C° 0 mm 1 mps 720 mmHg 90%

    2 June, Friday

    Time Temperature Precipitation Wind Pressure Humidity
    00:00 +2°C° 0 mm 1 mps 720 mmHg 90%
    01:00 +2°C° 0 mm 1 mps 720 mmHg 90%
    02:00 +2°C° 0 mm 1 mps 719 mmHg 90%
    03:00 +1°C° 0 mm 1 mps 719 mmHg 89%
    04:00 +1°C° 0 mm 1 mps 719 mmHg 88%
    05:00 +1°C° 0 mm 1 mps 719 mmHg 87%
    06:00 +1°C° 0 mm 1 mps 720 mmHg 86%
    07:00 +1°C° 0 mm 1 mps 720 mmHg 85%
    08:00 +4°C° 0 mm 1 mps 720 mmHg 72%
    09:00 +7°C° 0 mm 1 mps 721 mmHg 59%
    10:00 +11°C° 0 mm 1 mps 721 mmHg 46%
    11:00 +12°C° 0 mm 1 mps 721 mmHg 42%
    12:00 +13°C° 0 mm 1 mps 720 mmHg 38%
    13:00 +15°C° 0 mm 1 mps 720 mmHg 33%
    14:00 +14°C° 0 mm 1 mps 720 mmHg 41%
    15:00 +13°C° 0 mm 1 mps 719 mmHg 48%
    16:00 +12°C° 0 mm 1 mps 719 mmHg 56%
    17:00 +9°C° 0 mm 1 mps 719 mmHg 65%
    18:00 +6°C° 0 mm 1 mps 719 mmHg 74%
    19:00 +3°C° 0 mm 1 mps 719 mmHg 84%
    20:00 +3°C° 0 mm 1 mps 719 mmHg 84%
    21:00 +3°C° 0 mm 1 mps 719 mmHg 85%
    22:00 +3°C° 0 mm 1 mps 720 mmHg 85%
    23:00 +3°C° 0 mm 1 mps 719 mmHg 85%
    Show more